Location: Izdebno
(52.6670°N, 16.2170°E)
Time: 13:49:25
(UTC+02:00)

A-11 Canister half - Pass Details

Date: 28 February 2024
Orbit: 1525 x 1683 km, 47.3° (Epoch: 24 April)

Event Time Altitude Azimuth Distance (km) Brightness Sun altitude
Rises 22:19:57 0° 258° (WSW) 4,748 11.8 -40.2°
Reaches altitude 10° 22:23:04 10° 255° (WSW) 3,746 11.2 -40.4°
Enters shadow 22:27:18 30° 247° (WSW) 2,484 10.0 -40.8°
